FW5349 Weather Reports


Display with metric or nautical units.
time (UTC)temp
F
wind
direction
speed
MPH
gust
MPH
rain 1hr
in
rain 24hr
in
rain mn
in
humidity
%
barometer
mb
20260508131547 56 256 1.0 5.0 0.00 0.02 0.01 69 1003.0
20260508130043 54 304 2.0 4.0 0.00 0.02 0.01 74 1002.9
20260508124548 52 319 1.0 5.0 0.00 0.02 0.01 75 1002.9
20260508123048 53 282 3.0 8.0 0.00 0.02 0.01 72 1003.1
20260508121540 53 16 5.0 9.0 0.00 0.02 0.01 73 1003.1
20260508120036 52 314 6.0 10.0 0.00 0.02 0.01 75 1002.9
20260508114535 49 311 7.0 10.0 0.00 0.02 0.01 78 1002.9
20260508113044 48 307 2.0 8.0 0.00 0.02 0.01 82 1002.9
20260508111526 46 321 4.0 8.0 0.00 0.02 0.01 85 1003.0
20260508110023 45 342 3.0 8.0 0.00 0.02 0.01 88 1002.9
20260508104523 44 293 3.0 6.0 0.00 0.02 0.01 90 1002.8
20260508103024 43 311 2.0 5.0 0.00 0.02 0.01 91 1002.7
20260508101522 43 318 2.0 4.0 0.00 0.02 0.01 91 1002.7
20260508100018 42 304 2.0 5.0 0.00 0.02 0.01 91 1002.6
20260508094517 42 335 1.0 2.0 0.00 0.02 0.01 90 1002.6
20260508093017 42 335 1.0 4.0 0.00 0.02 0.01 90 1002.5
20260508091521 42 306 1.0 3.0 0.00 0.02 0.01 90 1002.4
20260508090022 42 306 1.0 3.0 0.00 0.02 0.01 90 1002.6
20260508084513 42 306 1.0 3.0 0.00 0.02 0.01 91 1002.4
20260508083011 42 306 1.0 3.0 0.01 0.02 0.01 90 1002.3
20260508081511 42 306 0.0 2.0 0.01 0.02 0.01 90 1002.6
20260508080010 42 306 0.0 2.0 0.01 0.02 0.01 90 1002.4
20260508074511 42 306 0.0 2.0 0.01 0.02 0.01 90 1002.4
20260508073010 42 306 0.0 3.0 0.00 0.02 0.00 90 1002.3
20260508071521 42 289 1.0 3.0 0.00 0.02 0.00 90 1002.4
20260508070008 42 313 2.0 4.0 0.00 0.02 0.00 90 1002.1
20260508064605 42 324 0.0 0.0 0.00 0.02 0.00 89 1002.7
20260508063003 42 324 0.0 0.0 0.00 0.02 0.00 89 1002.3
20260508061604 43 324 0.0 0.0 0.00 0.02 0.00 89 1002.4
20260508060105 43 324 0.0 0.0 0.00 0.02 0.00 89 1002.6
20260508054557 44 324 0.0 0.0 0.00 0.02 0.00 89 1002.5
20260508053055 44 324 0.0 0.0 0.00 0.02 0.00 89 1002.5
20260508051553 44 324 0.0 0.0 0.00 0.02 0.00 89 1002.8
20260508050051 45 324 0.0 0.0 0.00 0.02 0.00 89 1002.8
20260508044550 45 324 0.0 0.0 0.00 0.02 0.00 89 1002.9
20260508043048 46 324 0.0 0.0 0.00 0.02 0.00 89 1003.0
20260508041548 46 324 0.0 0.0 0.00 0.02 0.00 89 1003.2
20260508040044 46 324 0.0 0.0 0.00 0.02 0.00 89 1003.2
20260508034543 47 324 0.0 1.0 0.00 0.02 0.00 89 1002.9
20260508033041 47 324 0.0 2.0 0.00 0.02 0.00 89 1003.0
20260508031538 48 324 1.0 2.0 0.00 0.02 0.00 89 1003.4
20260508030042 48 309 1.0 3.0 0.00 0.02 0.00 89 1003.3
20260508024539 49 295 2.0 4.0 0.00 0.02 0.02 89 1003.3
20260508023035 49 303 1.0 4.0 0.00 0.02 0.02 90 1003.3
20260508021544 50 291 3.0 5.0 0.00 0.02 0.02 90 1003.3
20260508020034 50 325 1.0 2.0 0.00 0.02 0.02 90 1003.3
20260508014534 50 325 0.0 2.0 0.00 0.02 0.02 90 1003.5
20260508013040 50 325 0.0 2.0 0.00 0.02 0.02 89 1003.4
20260508011537 50 325 0.0 2.0 0.00 0.02 0.02 89 1003.4
20260508010034 51 325 0.0 2.0 0.00 0.02 0.02 89 1003.2
20260508004538 51 325 0.0 2.0 0.00 0.02 0.02 89 1003.0
20260508003031 52 325 0.0 3.0 0.01 0.02 0.02 89 1003.0
20260508001533 52 325 0.0 1.0 0.01 0.02 0.02 89 1002.8
20260508000032 53 325 0.0 4.0 0.01 0.02 0.02 89 1002.4
20260507234530 53 335 2.0 6.0 0.00 0.02 0.01 89 1002.6
20260507233036 53 270 0.0 4.0 0.00 0.02 0.01 89 1002.5
20260507231528 53 270 2.0 7.0 0.00 0.02 0.01 89 1002.5
20260507230026 53 251 2.0 4.0 0.00 0.02 0.01 89 1002.4
20260507224524 53 255 2.0 4.0 0.00 0.02 0.01 89 1002.3
20260507223024 53 250 0.0 3.0 0.00 0.02 0.01 89 1002.2
20260507221523 53 234 0.0 4.0 0.00 0.02 0.01 89 1002.3
20260507220023 53 226 1.0 5.0 0.00 0.02 0.01 89 1002.6
20260507214527 53 200 1.0 4.0 0.00 0.02 0.01 89 1002.5
20260507213024 53 206 2.0 5.0 0.00 0.02 0.01 90 1002.3
20260507211520 52 187 0.0 7.0 0.00 0.02 0.01 90 1002.4
20260507210033 52 223 1.0 7.0 0.00 0.02 0.01 90 1002.4
20260507204518 52 254 2.0 8.0 0.00 0.02 0.01 91 1002.5
20260507203017 51 222 2.0 6.0 0.00 0.02 0.01 91 1002.4
20260507201516 51 239 1.0 7.0 0.00 0.02 0.01 91 1002.4
20260507200018 50 223 2.0 6.0 0.00 0.02 0.01 91 1002.5
20260507194517 50 178 1.0 7.0 0.00 0.02 0.01 91 1002.7
20260507193012 50 237 3.0 8.0 0.00 0.02 0.01 91 1002.9
20260507191511 50 251 1.0 7.0 0.00 0.02 0.01 91 1002.9
20260507190011 50 190 1.0 5.0 0.00 0.02 0.01 91 1002.7
20260507184516 49 182 0.0 6.0 0.00 0.02 0.01 91 1002.7
20260507183009 49 189 1.0 6.0 0.00 0.02 0.01 91 1002.7
20260507181507 49 158 3.0 10.0 0.01 0.02 0.01 91 1002.5
20260507180006 48 132 2.0 12.0 0.01 0.02 0.01 90 1001.7
20260507174502 48 101 5.0 11.0 0.01 0.02 0.01 91 1002.0
20260507173058 48 105 4.0 9.0 0.01 0.02 0.01 90 1003.0
20260507171603 48 141 3.0 10.0 0.00 0.01 0.00 91 1004.1
20260507170057 49 134 3.0 8.0 0.00 0.01 0.00 91 1003.5
20260507164605 48 176 0.0 5.0 0.00 0.01 0.00 91 1004.0
20260507163056 48 144 1.0 8.0 0.00 0.01 0.00 91 1003.6
20260507161554 48 140 1.0 7.0 0.00 0.01 0.00 91 1003.3
20260507160051 49 156 3.0 7.0 0.00 0.01 0.00 90 1005.2
20260507154552 49 264 0.0 3.0 0.00 0.01 0.00 91 1004.4
20260507153048 50 227 2.0 8.0 0.00 0.01 0.00 91 1004.8
20260507151547 50 166 6.0 16.0 0.00 0.01 0.00 90 1005.1
20260507150046 50 248 4.0 17.0 0.00 0.01 0.00 90 1005.3
20260507144544 50 200 4.0 18.0 0.00 0.01 0.00 91 1005.2
20260507143042 51 200 7.0 16.0 0.00 0.01 0.00 91 1005.6
20260507141543 51 173 10.0 23.0 0.00 0.01 0.00 91 1005.6
20260507140040 50 173 6.0 14.0 0.00 0.01 0.00 90 1005.6
20260507134538 50 171 6.0 15.0 0.00 0.01 0.00 90 1006.1
20260507133035 50 127 6.0 14.0 0.00 0.01 0.00 90 1006.2